Lid_Strength_Index
10 9 9 9 8 8 8 6 5 4 2 3 3 2 2 1 1 0 0 0 1 1 1 1 2 1 2 2 2 2 2 3 4 5 7 6 4 4 4 3 4 4 3
10 10 10 10 9 8 8 6 5 5 3 3 3 3 3 1 1 0 0 0 1 2 2 2 2 2 2 3 3 3 4 4 3 4 5 8 7 7 5 4 4 4 5
12 11 11 11 9 8 7 6 4 4 3 3 4 4 4 3 2 1 1 1 1 2 2 2 2 2 2 3 3 4 4 5 4 4 5 7 7 8 9 6 5 6 4
12 11 11 10 9 7 6 5 4 2 1 2 4 7 7 6 5 3 1 1 1 0 2 2 2 2 2 2 2 3 3 4 5 6 7 4 5 8 11 10 9 7 7
11 11 10 9 7 5 5 4 4 3 2 2 3 5 8 7 5 5 2 1 1 2 2 3 2 2 2 1 2 2 3 3 4 4 9 8 6 4 7 11 13 11 8
11 10 9 8 6 4 4 3 4 4 3 3 2 5 6 7 7 6 5 2 2 2 2 2 2 2 2 1 2 2 2 3 4 4 6 6 6 7 6 7 10 10 12
11 10 10 8 6 5 4 4 5 5 5 4 3 4 6 7 6 6 6 5 3 2 3 2 2 2 2 2 3 2 4 4 4 4 6 7 5 5 4 5 7 10 11
11 10 8 6 6 6 5 5 5 5 5 4 3 3 4 6 6 6 6 5 6 2 2 3 2 2 2 2 3 2 3 4 4 4 5 8 8 6 7 5 7 10 11
10 9 7 6 6 6 6 6 6 5 5 4 4 3 4 5 7 7 7 8 5 5 2 2 3 2 2 2 2 2 3 3 3 4 5 8 8 7 6 5 5 6 8
11 10 8 7 6 6 6 6 7 7 6 5 4 3 3 4 6 8 8 8 8 6 4 2 3 2 2 2 3 2 3 3 4 5 5 6 8 7 7 6 4 4 5
10 9 7 7 7 7 8 9 9 8 7 6 5 4 3 4 4 7 8 8 9 9 8 3 3 3 3 3 4 4 3 4 4 5 6 6 7 8 7 6 5 5 5
10 9 8 9 10 11 13 13 13 12 11 11 9 5 4 4 4 6 8 9 9 9 9 5 3 3 4 3 4 5 6 6 6 6 6 6 7 7 7 7 6 6 5
10 10 9 11 13 14 15 15 15 15 13 13 11 9 7 5 6 6 7 9 10 10 11 10 3 4 5 4 4 4 5 6 6 6 7 5 6 6 7 7 7 6 6
11 10 12 14 15 16 17 17 17 16 15 14 13 13 11 7 6 7 7 9 10 11 11 10 4 5 5 5 5 5 5 6 5 5 5 5 6 6 6 7 7 7 7
12 13 14 16 17 17 17 18 17 16 16 16 15 14 13 11 11 9 8 9 11 11 11 11 5 5 5 6 5 6 6 7 7 7 6 5 6 8 6 8 8 9 9
13 14 15 17 17 18 18 18 17 16 15 16 16 15 14 13 12 9 10 10 11 11 11 11 6 6 7 8 7 6 7 7 9 9 8 7 10 9 9 9 8 8 9
14 15 17 18 18 18 18 17 16 16 16 15 15 16 15 15 13 13 10 10 11 12 11 11 6 6 6 8 7 8 6 7 8 9 10 10 10 10 9 9 9 9 8
15 16 17 18 18 18 18 17 17 17 16 14 15 16 15 15 13 13 12 11 12 12 12 10 7 6 6 8 7 8 7 8 9 9 10 10 11 11 10 10 10 11 9
15 16 17 17 19 18 18 19 19 19 18 17 15 15 15 16 14 14 13 12 12 12 12 11 9 9 9 8 8 7 8 9 9 10 10 10 11 10 10 11 11 11 10
15 17 17 18 19 19 19 19 20 20 20 19 18 17 14 16 15 15 13 13 12 12 12 11 10 10 10 9 8 7 7 10 9 10 11 12 11 10 9 11 11 12 11
16 17 18 20 20 20 19 20 21 22 21 20 18 17 17 15 14 15 13 13 12 11 12 12 11 10 10 10 8 7 7 8 9 10 10 10 10 10 10 9 11 11 10
18 18 19 21 21 20 20 21 22 21 21 21 21 21 19 14 13 14 13 12 12 12 12 12 12 10 11 10 9 8 7 7 9 10 9 9 10 10 9 10 9 9 10
19 19 21 22 22 22 21 23 23 21 22 24 23 21 19 16 13 13 12 11 12 12 12 12 11 11 11 11 9 8 7 8 9 9 9 9 10 10 10 9 9 11 11
20 21 22 24 25 24 23 23 22 23 25 24 21 18 17 16 14 11 11 12 12 12 13 12 12 11 11 11 11 10 9 10 10 10 9 9 10 10 10 10 10 10 10
21 22 24 24 26 25 25 24 24 25 25 22 19 18 16 15 15 11 11 11 12 11 12 12 11 12 12 12 10 11 11 11 11 12 11 11 10 11 11 11 10 10 11
22 24 25 25 25 27 27 26 26 26 25 23 21 21 18 13 13 12 11 10 11 11 10 10 10 12 11 10 10 10 10 10 10 12 12 12 11 11 11 11 11 11 12